Flag for India Weather past 2 weeks in Kolkata, West Bengal, India

Now
86 °F

Haze.


Feels Like: 91 °F
Forecast: 77 / 90 °F
Wind: 6 mph from Southeast

Location: Calcutta / Dum Dum

Current Time: Apr 28, 2015 at 10:57:55 AM

Latest Report: Apr 28, 2015 at 10:20 AM


Visibility: 2 mi

Pressure: 29.83 "Hg

Humidity: 59%

Dew point: 70 °F

Location of KolkataLocation

Historic Weather in Kolkata — Graph

°F

Kolkata temperature yesterday

Maximum temperature yesterday: 91 °F (at 1:20 PM)
Minimum temperature yesterday: 73 °F (at 12:20 AM)
Average temperature yesterday: 81 °F

Past Weeks' High & Low Weather Summary

 TemperatureHumidityPressure
High104 °F (Apr 20, 3:30 PM)100% (Apr 25, 2:20 PM)29.98 "Hg (Apr 25, 2:20 PM)
Low70 °F (Apr 26, 12:50 AM)26% (Apr 20, 3:30 PM)29.56 "Hg (Apr 22, 5:20 PM)
Average84 °F71%29.78 "Hg
* Reported Apr 13 10:20 AM — Apr 28 9:50 AM, Kolkata, Weather by CustomWeather, © 2015

Note: Actual official high and low records may vary slightly from our data, if they occured in-between our weather recording intervals... More about our weather records

Advertising

Kolkata weather history for previous 24 hours

 ConditionsComfort  
Time TempWeatherWind HumidityBarometerVisibility
9:50 AM
Tue, Apr 28
84 °FScattered clouds.6 mph66%29.86 "Hg2 mi
8:50 AM84 °FScattered clouds.3 mph66%29.86 "Hg2 mi
8:20 AM82 °FScattered clouds.3 mph70%29.86 "Hg2 mi
7:50 AM81 °FFog.5 mph79%29.86 "Hg1 mi
7:20 AM79 °FFog.5 mph84%29.83 "Hg1 mi
6:50 AM77 °FFog.3 mph89%29.83 "Hg1 mi
6:20 AM75 °FFog.5 mph89%29.80 "Hg1 mi
5:50 AM75 °FFog.No wind89%29.80 "Hg1 mi
5:20 AM75 °FFog.No wind89%29.80 "Hg1 mi
4:50 AM75 °FFog.No wind89%29.80 "Hg1 mi
4:20 AM75 °FPartly cloudy.No wind89%29.77 "Hg1 mi
3:50 AM75 °FPartly cloudy.No wind89%29.77 "Hg1 mi
2:50 AM75 °FPartly cloudy.No wind89%29.77 "Hg1 mi
2:20 AM75 °FPartly cloudy.No wind89%29.80 "Hg1 mi
1:50 AM75 °FPartly cloudy.3 mph83%29.77 "Hg1 mi
1:20 AM75 °FPartly cloudy.No wind83%29.80 "Hg1 mi
12:50 AM75 °FPartly cloudy.No wind83%29.80 "Hg1 mi
12:20 AM75 °FPartly cloudy.5 mph83%29.80 "Hg1 mi
11:50 PM
Mon, Apr 27
75 °FPartly cloudy.6 mph83%29.80 "Hg1 mi
11:20 PM75 °FPartly cloudy.3 mph83%29.80 "Hg1 mi
10:50 PM75 °FPartly cloudy.7 mph83%29.83 "Hg1 mi
10:20 PM75 °FLight rain. Partly cloudy.3 mph89%29.83 "Hg1 mi
9:50 PM77 °FThunderstorms. Partly cloudy.3 mph74%29.86 "Hg1 mi
9:20 PM77 °FThunderstorms. Partly cloudy.7 mph74%29.86 "Hg1 mi
8:50 PM79 °FThunderstorms. Partly cloudy.10 mph70%29.86 "Hg1 mi
8:20 PM82 °FPartly cloudy.13 mph74%29.86 "Hg2 mi
7:50 PM84 °FPassing clouds.5 mph70%29.83 "Hg2 mi
7:20 PM84 °FPassing clouds.3 mph70%29.80 "Hg2 mi
6:50 PM84 °FPassing clouds.No wind70%29.80 "Hg2 mi
6:20 PM86 °FHaze.3 mph62%29.77 "Hg2 mi
5:50 PM88 °FScattered clouds.5 mph59%29.77 "Hg2 mi
5:20 PM88 °FHaze.6 mph59%29.77 "Hg2 mi
4:50 PM88 °FHaze.6 mph59%29.77 "Hg3 mi
4:20 PM88 °FScattered clouds.6 mph59%29.77 "Hg3 mi
3:50 PM90 °FScattered clouds.7 mph55%29.77 "Hg3 mi
3:20 PM90 °FScattered clouds.7 mph55%29.77 "Hg3 mi
2:50 PM90 °FScattered clouds.6 mph55%29.77 "Hg3 mi
2:20 PM91 °FScattered clouds.5 mph52%29.80 "Hg3 mi
1:50 PM91 °FScattered clouds.6 mph52%29.80 "Hg3 mi
1:20 PM91 °FScattered clouds.3 mph52%29.83 "Hg3 mi
12:50 PM90 °FScattered clouds.3 mph55%29.86 "Hg2 mi
12:20 PM90 °FScattered clouds.3 mph55%29.86 "Hg2 mi
11:50 AM90 °FScattered clouds.3 mph55%29.89 "Hg2 mi
11:20 AM88 °FScattered clouds.5 mph55%29.89 "Hg2 mi
10:50 AM88 °FScattered clouds.6 mph55%29.89 "Hg2 mi
10:20 AM86 °FScattered clouds.6 mph66%29.89 "Hg2 mi
Weather by CustomWeather, © 2015

See weather overviewHow to use our weather pages